| time (UTC) | temp F | wind direction | speed MPH | gust MPH | rain 1hr in | rain 24hr in | rain mn in | humidity % | barometer mb |
| 20260902154605 | 55 | 0 | 0.0 | 0.0 | 0.00 | 0.17 | 0.17 | 93 | 1020.8 |
| 20260902153108 | 55 | 0 | 0.0 | 0.0 | 0.00 | 0.17 | 0.17 | 94 | 1020.9 |
| 20260902151606 | 56 | 0 | 0.0 | 0.0 | 0.00 | 0.17 | 0.17 | 94 | 1021.0 |
| 20260902150105 | 56 | 0 | 0.0 | 0.0 | 0.00 | 0.17 | 0.17 | 93 | 1021.3 |
| 20260902144603 | 56 | 0 | 0.0 | 0.0 | 0.00 | 0.17 | 0.17 | 93 | 1021.4 |
| 20260902143105 | 56 | 0 | 0.0 | 0.0 | 0.00 | 0.17 | 0.17 | 93 | 1021.3 |
| 20260902141601 | 56 | 0 | 0.0 | 0.0 | 0.00 | 0.17 | 0.17 | 93 | 1021.4 |
| 20260902140101 | 56 | 0 | 0.0 | 0.0 | 0.00 | 0.17 | 0.17 | 93 | 1021.5 |
| 20260902134804 | 57 | 0 | 0.0 | 0.0 | 0.00 | 0.17 | 0.17 | 93 | 1021.6 |
| 20260902133112 | 57 | 0 | 0.0 | 0.0 | 0.00 | 0.17 | 0.17 | 93 | 1021.7 |
| 20260902131607 | 57 | 0 | 0.0 | 0.0 | 0.00 | 0.17 | 0.17 | 93 | 1021.8 |
| 20260902130115 | 56 | 0 | 0.0 | 0.0 | 0.00 | 0.16 | 0.16 | 92 | 1021.8 |
| 20260902124605 | 57 | 0 | 0.0 | 0.0 | 0.00 | 0.16 | 0.16 | 92 | 1021.8 |
| 20260902123112 | 57 | 0 | 0.0 | 0.0 | 0.00 | 0.16 | 0.16 | 92 | 1021.7 |
| 20260902121604 | 57 | 0 | 0.0 | 0.0 | 0.03 | 0.16 | 0.16 | 92 | 1021.7 |
| 20260902120104 | 58 | 0 | 0.0 | 1.0 | 0.07 | 0.16 | 0.16 | 92 | 1021.7 |
| 20260902114604 | 58 | 0 | 0.0 | 1.0 | 0.12 | 0.16 | 0.16 | 91 | 1021.6 |
| 20260902113100 | 58 | 0 | 0.0 | 2.0 | 0.12 | 0.15 | 0.15 | 91 | 1021.5 |
| 20260902111604 | 58 | 252 | 0.0 | 3.0 | 0.11 | 0.13 | 0.13 | 91 | 1021.5 |
| 20260902110106 | 58 | 5 | 0.0 | 3.0 | 0.07 | 0.08 | 0.08 | 91 | 1021.4 |
| 20260902104616 | 58 | 293 | 0.0 | 1.0 | 0.03 | 0.03 | 0.03 | 90 | 1021.3 |
| 20260902103119 | 58 | 0 | 0.0 | 3.0 | 0.03 | 0.03 | 0.03 | 89 | 1021.2 |
| 20260902101609 | 58 | 276 | 1.0 | 3.0 | 0.01 | 0.01 | 0.01 | 88 | 1021.1 |
| 20260902094601 | 59 | 285 | 1.0 | 7.0 | 0.00 | 0.00 | 0.00 | 84 | 1020.8 |
| 20260902093105 | 60 | 286 | 1.0 | 5.0 | 0.00 | 0.00 | 0.00 | 81 | 1020.7 |
| 20260902091603 | 60 | 296 | 1.0 | 4.0 | 0.00 | 0.00 | 0.00 | 80 | 1020.6 |
| 20260902090101 | 60 | 300 | 1.0 | 6.0 | 0.00 | 0.00 | 0.00 | 81 | 1020.5 |
| 20260902084603 | 60 | 279 | 1.0 | 4.0 | 0.00 | 0.00 | 0.00 | 84 | 1020.3 |
| 20260902083101 | 60 | 242 | 1.0 | 10.0 | 0.00 | 0.00 | 0.00 | 81 | 1020.2 |
| 20260902081558 | 62 | 258 | 3.0 | 9.0 | 0.00 | 0.00 | 0.00 | 76 | 1020.3 |
| 20260902074601 | 64 | 286 | 3.0 | 7.0 | 0.00 | 0.00 | 0.00 | 71 | 1020.4 |
| 20260902073059 | 63 | 254 | 1.0 | 5.0 | 0.00 | 0.00 | 0.00 | 72 | 1020.4 |
| 20260902071603 | 61 | 298 | 1.0 | 7.0 | 0.00 | 0.00 | 0.00 | 79 | 1020.4 |
| 20260902070108 | 61 | 284 | 2.0 | 8.0 | 0.00 | 0.00 | 0.00 | 78 | 1020.9 |
| 20260902064606 | 62 | 284 | 3.0 | 10.0 | 0.00 | 0.00 | 0.00 | 75 | 1020.9 |
| 20260902063119 | 64 | 313 | 2.0 | 10.0 | 0.00 | 0.00 | 0.00 | 70 | 1020.7 |
| 20260902061625 | 63 | 331 | 2.0 | 9.0 | 0.00 | 0.00 | 0.00 | 75 | 1020.6 |
| 20260902060128 | 64 | 207 | 2.0 | 10.0 | 0.00 | 0.00 | 0.00 | 68 | 1020.6 |
| 20260902054602 | 64 | 240 | 3.0 | 11.0 | 0.00 | 0.00 | 0.00 | 67 | 1020.8 |
| 20260902053113 | 64 | 245 | 4.0 | 9.0 | 0.00 | 0.00 | 0.00 | 68 | 1021.0 |
| 20260902051617 | 65 | 263 | 2.0 | 5.0 | 0.00 | 0.00 | 0.00 | 70 | 1021.2 |
| 20260902050114 | 63 | 322 | 2.0 | 7.0 | 0.00 | 0.00 | 0.00 | 68 | 1021.6 |
| 20260902044636 | 63 | 299 | 1.0 | 4.0 | 0.00 | 0.00 | 0.00 | 70 | 1021.8 |
| 20260902043105 | 62 | 284 | 2.0 | 5.0 | 0.00 | 0.00 | 0.00 | 74 | 1022.1 |
| 20260902041615 | 61 | 355 | 0.0 | 6.0 | 0.00 | 0.00 | 0.00 | 79 | 1022.3 |
| 20260902040111 | 62 | 331 | 1.0 | 5.0 | 0.00 | 0.00 | 0.00 | 69 | 1022.2 |
| 20260902034603 | 63 | 0 | 3.0 | 8.0 | 0.00 | 0.00 | 0.00 | 69 | 1022.2 |
| 20260902033104 | 64 | 306 | 1.0 | 8.0 | 0.00 | 0.00 | 0.00 | 68 | 1022.3 |
| 20260902031617 | 64 | 258 | 3.0 | 8.0 | 0.00 | 0.00 | 0.00 | 69 | 1022.5 |
| 20260902030108 | 62 | 205 | 2.0 | 8.0 | 0.00 | 0.00 | 0.00 | 69 | 1022.6 |
| 20260902024601 | 62 | 343 | 1.0 | 7.0 | 0.00 | 0.00 | 0.00 | 71 | 1022.7 |
| 20260902023101 | 61 | 254 | 4.0 | 9.0 | 0.00 | 0.00 | 0.00 | 70 | 1022.7 |
| 20260902021603 | 61 | 277 | 3.0 | 10.0 | 0.00 | 0.00 | 0.00 | 72 | 1022.8 |
| 20260902014600 | 61 | 274 | 3.0 | 9.0 | 0.00 | 0.00 | 0.00 | 69 | 1022.7 |
| 20260902013110 | 60 | 261 | 2.0 | 8.0 | 0.00 | 0.00 | 0.00 | 72 | 1022.7 |
| 20260902011602 | 62 | 261 | 3.0 | 10.0 | 0.00 | 0.00 | 0.00 | 67 | 1022.5 |
| 20260902010105 | 61 | 246 | 2.0 | 7.0 | 0.00 | 0.00 | 0.00 | 65 | 1022.5 |
| 20260902004607 | 61 | 302 | 2.0 | 10.0 | 0.00 | 0.00 | 0.00 | 63 | 1022.4 |
| 20260902003106 | 60 | 248 | 2.0 | 4.0 | 0.00 | 0.00 | 0.00 | 65 | 1022.3 |
| 20260902001605 | 58 | 0 | 0.0 | 3.0 | 0.00 | 0.00 | 0.00 | 71 | 1022.3 |
| 20260902000105 | 56 | 0 | 0.0 | 1.0 | 0.00 | 0.00 | 0.00 | 77 | 1022.1 |
| 20260901234609 | 56 | 0 | 0.0 | 0.0 | 0.00 | 0.00 | 0.00 | 77 | 1021.8 |
| 20260901233105 | 55 | 0 | 0.0 | 0.0 | 0.00 | 0.00 | 0.00 | 78 | 1021.7 |
| 20260901231616 | 55 | 0 | 0.0 | 0.0 | 0.00 | 0.00 | 0.00 | 79 | 1021.8 |
| 20260901230110 | 54 | 0 | 0.0 | 2.0 | 0.00 | 0.00 | 0.00 | 79 | 1022.1 |
| 20260901224605 | 54 | 0 | 0.0 | 1.0 | 0.00 | 0.00 | 0.00 | 78 | 1021.8 |
| 20260901223106 | 54 | 0 | 0.0 | 2.0 | 0.00 | 0.00 | 0.00 | 76 | 1021.6 |
| 20260901221612 | 55 | 0 | 0.0 | 1.0 | 0.00 | 0.00 | 0.00 | 73 | 1021.4 |
| 20260901220108 | 56 | 0 | 0.0 | 0.0 | 0.00 | 0.00 | 0.00 | 69 | 1021.4 |
| 20260901214601 | 56 | 0 | 0.0 | 1.0 | 0.00 | 0.00 | 0.00 | 65 | 1021.5 |
| 20260901213102 | 57 | 252 | 0.0 | 3.0 | 0.00 | 0.00 | 0.00 | 64 | 1021.4 |
| 20260901211603 | 56 | 0 | 0.0 | 3.0 | 0.00 | 0.00 | 0.00 | 66 | 1021.4 |
| 20260901204607 | 57 | 0 | 0.0 | 2.0 | 0.00 | 0.00 | 0.00 | 68 | 1021.3 |
| 20260901203102 | 57 | 0 | 1.0 | 4.0 | 0.00 | 0.00 | 0.00 | 68 | 1021.3 |
| 20260901201601 | 57 | 259 | 2.0 | 4.0 | 0.00 | 0.00 | 0.00 | 68 | 1021.4 |
| 20260901194606 | 56 | 0 | 0.0 | 1.0 | 0.00 | 0.00 | 0.00 | 67 | 1021.5 |
| 20260901193104 | 56 | 0 | 0.0 | 3.0 | 0.00 | 0.00 | 0.00 | 68 | 1021.4 |
| 20260901191604 | 56 | 0 | 0.0 | 2.0 | 0.00 | 0.00 | 0.00 | 68 | 1021.6 |
| 20260901190104 | 56 | 0 | 0.0 | 1.0 | 0.00 | 0.00 | 0.00 | 69 | 1021.7 |
| 20260901184607 | 56 | 0 | 0.0 | 2.0 | 0.00 | 0.00 | 0.00 | 69 | 1021.9 |
| 20260901183121 | 56 | 0 | 0.0 | 1.0 | 0.00 | 0.00 | 0.00 | 71 | 1022.0 |
| 20260901181602 | 55 | 0 | 0.0 | 1.0 | 0.00 | 0.00 | 0.00 | 75 | 1022.0 |
| 20260901180105 | 55 | 0 | 0.0 | 1.0 | 0.00 | 0.00 | 0.00 | 78 | 1022.1 |
| 20260901174606 | 55 | 0 | 0.0 | 0.0 | 0.00 | 0.00 | 0.00 | 80 | 1022.1 |
| 20260901173151 | 55 | 0 | 0.0 | 0.0 | 0.00 | 0.00 | 0.00 | 82 | 1022.2 |
| 20260901171606 | 54 | 0 | 0.0 | 0.0 | 0.00 | 0.00 | 0.00 | 82 | 1022.2 |
| 20260901170108 | 55 | 0 | 0.0 | 0.0 | 0.00 | 0.00 | 0.00 | 81 | 1022.2 |
| 20260901164610 | 55 | 0 | 0.0 | 0.0 | 0.00 | 0.00 | 0.00 | 80 | 1022.2 |
| 20260901163119 | 55 | 0 | 0.0 | 0.0 | 0.00 | 0.00 | 0.00 | 80 | 1022.3 |
| 20260901161607 | 55 | 0 | 0.0 | 0.0 | 0.00 | 0.00 | 0.00 | 79 | 1022.4 |
| 20260901160104 | 55 | 0 | 0.0 | 1.0 | 0.00 | 0.00 | 0.00 | 80 | 1022.5 |